FW5686 Weather Reports


time (UTC)temp
C
wind
direction
speed
KPH
gust
KPH
rain 1hr
cm
rain 24hr
cm
rain mn
cm
humidity
%
barometer
mb
20260906080036 18 30 8.0 14.5 0.00 0.61 0.00 86 1016.1
20260906074536 18 5 11.3 20.9 0.00 0.61 0.00 86 1016.1
20260906073036 18 12 9.7 16.1 0.00 0.61 0.00 86 1016.1
20260906071532 18 22 8.0 14.5 0.00 0.61 0.00 87 1016.1
20260906070035 18 64 8.0 17.7 0.00 0.61 0.00 87 1016.3
20260906064537 18 349 4.8 16.1 0.00 0.61 0.00 88 1016.3
20260906063036 19 17 8.0 17.7 0.00 0.61 0.00 88 1016.2
20260906061534 19 5 9.7 16.1 0.00 0.61 0.00 90 1016.1
20260906060035 20 26 11.3 19.3 0.00 0.61 0.00 91 1016.2
20260906054538 20 21 9.7 19.3 0.00 0.61 0.00 91 1016.1
20260906053037 20 28 8.0 12.9 0.00 0.61 0.00 92 1015.9
20260906051532 21 16 8.0 14.5 0.00 0.61 0.00 92 1015.9
20260906050037 21 36 6.4 14.5 0.00 0.61 0.00 92 1015.5
20260906044533 21 14 9.7 16.1 0.00 0.61 0.00 93 1015.6
20260906043033 21 12 8.0 14.5 0.00 0.61 0.00 93 1015.4
20260906041540 21 5 9.7 17.7 0.00 0.61 0.00 93 1015.5
20260906040036 21 15 11.3 19.3 0.00 0.61 0.00 93 1015.3
20260906034536 22 9 9.7 17.7 0.00 0.61 0.61 93 1015.3
20260906033038 22 360 8.0 16.1 0.00 0.61 0.61 93 1015.2
20260906031533 22 42 8.0 16.1 0.00 0.61 0.61 93 1015.4
20260906030034 22 16 6.4 12.9 0.00 0.61 0.61 92 1015.4
20260906024540 22 26 4.8 11.3 0.00 0.61 0.61 92 1015.4
20260906023042 22 20 4.8 9.7 0.00 0.61 0.61 92 1015.5
20260906021543 23 42 6.4 16.1 0.00 0.61 0.61 92 1015.4
20260906020034 23 20 8.0 16.1 0.00 0.61 0.61 92 1015.3
20260906014546 23 28 6.4 11.3 0.00 0.61 0.61 92 1014.9
20260906013042 23 23 8.0 17.7 0.00 0.61 0.61 92 1014.7
20260906011535 23 35 8.0 19.3 0.00 0.61 0.61 93 1014.6
20260906010036 23 55 8.0 17.7 0.00 0.61 0.61 93 1014.4
20260906004535 23 49 3.2 8.0 0.00 0.61 0.61 94 1014.3
20260906003037 23 5 3.2 6.4 0.00 0.61 0.61 93 1013.8
20260906001535 23 5 3.2 6.4 0.00 0.61 0.61 91 1013.8
20260906000036 23 332 3.2 6.4 0.00 0.61 0.61 89 1013.8
20260905234539 24 325 3.2 6.4 0.00 0.61 0.61 88 1013.9
20260905233035 24 0 1.6 11.3 0.00 0.61 0.61 90 1014.1
20260905231534 24 342 3.2 9.7 0.30 0.61 0.61 91 1014.0
20260905230037 24 336 3.2 16.1 0.30 0.61 0.61 90 1013.8
20260905224535 24 5 6.4 12.9 0.30 0.61 0.61 89 1013.8
20260905223035 25 24 4.8 12.9 0.30 0.61 0.61 86 1013.5
20260905221533 27 351 17.7 25.7 0.00 0.30 0.30 80 1013.4
20260905220037 30 348 0.0 6.4 0.00 0.30 0.30 73 1012.9
20260905214536 31 0 0.0 0.0 0.00 0.30 0.30 70 1012.7
20260905213036 32 292 3.2 9.7 0.00 0.30 0.30 66 1012.7
20260905211538 31 329 1.6 11.3 0.00 0.30 0.30 68 1012.8
20260905210035 31 269 3.2 12.9 0.00 0.30 0.30 68 1013.2
20260905204533 31 247 3.2 12.9 0.00 0.30 0.30 69 1013.4
20260905203034 31 248 4.8 14.5 0.00 0.30 0.30 68 1013.7
20260905201536 31 280 6.4 16.1 0.00 0.30 0.30 66 1013.8
20260905200040 31 252 6.4 12.9 0.00 0.30 0.30 66 1013.9
20260905194540 31 209 1.6 14.5 0.00 0.30 0.30 70 1014.1
20260905193036 31 288 3.2 12.9 0.00 0.30 0.30 67 1014.3
20260905191540 30 227 4.8 12.9 0.00 0.30 0.30 69 1014.4
20260905190048 30 250 4.8 14.5 0.00 0.30 0.30 68 1014.7
20260905184542 30 238 4.8 14.5 0.00 0.30 0.30 68 1015.2
20260905183033 30 201 6.4 16.1 0.00 0.30 0.30 68 1015.2
20260905181536 30 165 4.8 16.1 0.00 0.30 0.30 70 1015.2
20260905180034 29 256 4.8 14.5 0.00 0.30 0.30 72 1015.3
20260905174540 29 250 3.2 16.1 0.00 0.30 0.30 73 1015.4
20260905173036 28 231 4.8 14.5 0.00 0.30 0.30 72 1015.3
20260905171546 28 231 4.8 12.9 0.00 0.30 0.30 71 1015.4
20260905170037 28 211 6.4 14.5 0.00 0.30 0.30 74 1015.4
20260905164534 27 284 6.4 16.1 0.00 0.30 0.30 77 1015.0
20260905163034 26 205 8.0 14.5 0.00 0.30 0.30 78 1015.6
20260905161537 26 270 3.2 16.1 0.00 0.30 0.30 78 1015.9
20260905160036 26 211 9.7 20.9 0.00 0.30 0.30 75 1015.8
20260905154536 26 197 1.6 11.3 0.00 0.30 0.30 76 1015.9
20260905153047 25 153 8.0 14.5 0.00 0.30 0.30 77 1015.9
20260905151538 25 175 6.4 17.7 0.00 0.30 0.30 79 1015.6
20260905150036 25 213 8.0 16.1 0.00 0.30 0.30 79 1015.6
20260905144534 24 175 9.7 19.3 0.00 0.30 0.30 79 1015.5
20260905143036 23 180 4.8 14.5 0.00 0.30 0.30 82 1015.7
20260905141549 23 183 9.7 17.7 0.00 0.30 0.30 83 1015.8
20260905140033 22 184 6.4 14.5 0.00 0.30 0.30 84 1016.0
20260905134536 22 128 3.2 11.3 0.00 0.30 0.30 87 1016.0
20260905133033 21 161 4.8 9.7 0.00 0.30 0.30 88 1016.3
20260905131536 21 78 4.8 14.5 0.00 0.30 0.30 90 1016.5
20260905130036 20 0 0.0 4.8 0.00 0.30 0.30 92 1016.9
20260905124536 20 0 0.0 3.2 0.00 0.30 0.30 91 1016.8
20260905123036 19 107 3.2 11.3 0.00 0.30 0.30 92 1016.4
20260905121534 19 72 3.2 9.7 0.00 0.30 0.30 92 1016.1
20260905120035 19 107 4.8 12.9 0.00 0.30 0.30 91 1015.9
20260905114532 19 98 6.4 17.7 0.00 0.30 0.30 91 1016.4
20260905113034 19 65 6.4 14.5 0.00 0.30 0.30 91 1016.6
20260905111541 19 36 8.0 24.1 0.00 0.30 0.30 90 1016.6
20260905110033 19 17 12.9 22.5 0.00 0.30 0.30 90 1017.0
20260905104538 19 24 8.0 20.9 0.10 0.30 0.30 90 1017.0
20260905103038 19 28 14.5 22.5 0.30 0.30 0.30 91 1017.1
20260905101536 19 28 11.3 29.0 0.30 0.30 0.30 90 1016.9
20260905100035 19 42 19.3 33.8 0.30 0.30 0.30 90 1017.1
20260905094536 20 350 20.9 43.5 0.20 0.20 0.20 88 1017.3
20260905093038 21 5 25.7 53.1 0.00 0.00 0.00 85 1016.9
20260905091538 22 5 30.6 45.1 0.00 0.00 0.00 92 1016.5
20260905090046 21 0 0.0 4.8 0.00 0.00 0.00 94 1015.4
20260905084539 21 90 0.0 1.6 0.00 0.00 0.00 93 1015.5
20260905083044 22 0 0.0 0.0 0.00 0.00 0.00 93 1015.2
20260905081538 22 90 1.6 3.2 0.00 0.00 0.00 93 1015.2